OPS 4682 DEB, 38376

Orbit data source: Space-Track

OPS 4682 DEB, 38376 is space debris in LEO originally from a launch on Sat, 03 Apr 1965 UTC launched from the Air Force Western Test Range (AFWTR). Debris objects in space refer to the collection of defunct objects orbiting the Earth. Examples of debris include non-operational satellites, rocket bodies, and fragments generated from explosions, collisions, or faulty payload assembly.

Loading next visibility...
Identifier
38376, 1965-027CD
Orbit
LEO
Country
Flag of USUS
Related business
Manufacturer
Unknown
Mission
Spacecraft
Bus & Motor
Unknown
Mass
Unknown
Launch date (UTC)
1965-04-03 (61 years ago)
Launch vehicle
Unknown
Launch site
Air Force Western Test Range (AFWTR)
Object type
Payload
Rocket body
Debris
Shape & HBR
Unknown shape, 0.1 m
Radar Cross Section
Small (<0.1 m²)

Expand to show TLE details & history
Last TLE update: 16 hours ago

TLE from 16 hours ago
0 OPS 4682 DEB
1 38376U 65027CD  26107.13595078 -.00000131  00000-0 -48684-3 0  9991
2 38376  90.2469   9.4166 0028693 308.3335  51.5206 12.95837411653888
Epoch: 2026-04-17T03:15Z
TLE epoch observation values (Epoch: 2026-04-17T03:15:46.147Z)
Latitude
-0.00002°
Longitude
115.20084°
Altitude
1,267.683 km
Speed
7.228 km/s
True Right ascension
00h 37m 39s
True Declination
0° 00' 00"
Sunlit
Object was in daylight at epoch
Visualization orbit readout
Latitude
Unknown
Longitude
Unknown
Altitude
Unknown
Speed
Unknown
Apparent Right ascension
Unknown
Apparent Declination
Unknown
Sunlit
N/A
Visualization observer readout
Local Sidereal Time
01:52:12
Azimuth
Unknown
Elevation
Unknown
Doppler factor
Unknown
Orbital elements
Apogee altitude
1,297.533 km
Perigee altitude
1,253.612 km
Semi-major axis
7,653.71 km
Eccentricity
0.00287
Inclination
90.2469°
RAAN
9.4166°
Arg. of periapsis
308.3335°
True anomaly
51.77857°
Mean anomaly
51.5206°
Eccentric anomaly
51.64953°
Mean motion
3.24142 °/min
Orbital period
111.06 mins
BSTAR
-0.00048684
Loading maneuver chart data...
Computing Atmospheric mass density...
Loading historical data...
Loading historical data...
Loading historical data...
Loading historical data...
Loading historical data...
Loading historical data...
Loading historical data...

Documentation

Showing up to 5 results
|